Conséquences sur les êtres vivants :
Avec 1 243 décès excédentaires enregistrés du 3 au 22 juillet sur le territoire français, la deuxième vague de chaleur de l'été 2026, moins meurtrière que celle de fin juin, porte à 7 300 morts le bilan encore provisoire des victimes des fortes températures cette année, a annoncé mercredi Santé publique France.
Par ailleurs, le pays a connu 52 jours de vagues de chaleur depuis mi-juin, un record alors même que l'été n'est pas terminé.
Conséquences sur la végétation :
La canicule provoque un stress hydrique majeur
et des brûlures du feuillage
qui fragilisent durablement les arbres.
Le stress hydrique et la faim d'eau.
Absence d'eau : Quand la terre s'assèche, les racines ne trouvent plus assez d'humidité pour nourrir l'arbre.
Arrêt de la photosynthèse : Pour survivre, l'arbre ferme ses pores (les stomates) et met ses fonctions vitales au ralenti. Il ne produit plus de nourriture.
Conséquences : Les grands arbres, qui ont besoin de beaucoup d'eau, souffrent plus vite que les jeunes. L'organisme s'épuise.
Les dégâts visibles sur les feuilles :
Brûlures : Au-dessus de 43 °C, les feuilles des feuillus brûlent, deviennent beiges et translucides.
Chute prématurée : Les aiguilles des résineux rougissent et tombent. Les feuillus perdent leurs feuilles en plein été pour limiter les pertes en eau, prenant un aspect d'hiver.
Coups de soleil : Sur les jeunes sujets ou les arbres à écorce fine (comme le hêtre), la chaleur provoque des fissures et des nécroses sur le tronc.
L'affaiblissement à long terme.
Maladies et parasites : Un arbre fatigué se défend mal contre les insectes et les champignons.
Branches cassantes : Le bois sèche en silence, ce qui rend certaines branches dangereuses et cassantes, parfois sans prévenir.
Nombreux incendies : Le sécheresse favorise le départ de nombeux incendies.
Notre résidence n'a pas échappé à ces canicules successives, les résidents ont beaucoup souffert et la végétation en paie un prix fort.
Plusieurs plantations ou arbres sont morts, meurent ou en état de faiblesse, certains sont malades. Des feuilles tombent, des branches cassent et des parasites apparaissent.
Un état des lieux sera réalisé dès la rentrée, nous tirerons toutes les conséquence des conclusions qui serons fournies par les professionnels.

/image%2F0552669%2F20260821%2Fob_82e5f9_img-20260821-093951.jpg)
/image%2F0552669%2F20260821%2Fob_af0f11_img-20260821-094228.jpg)
/image%2F0552669%2F20260821%2Fob_71d427_img-20260821-112250.jpg)
/image%2F0552669%2F20260821%2Fob_c804a0_img-20260821-151727.jpg)
/image%2F0552669%2F20260821%2Fob_e141d9_img-20260821-151732.jpg)
/image%2F0552669%2F20260821%2Fob_d069ed_img-20260821-151740.jpg)
/image%2F0552669%2F20260821%2Fob_d43603_img-20260821-151837.jpg)
/image%2F0552669%2F20260821%2Fob_964a3f_img-20260821-152051.jpg)
/image%2F0552669%2F20260821%2Fob_70e3c7_img-20260821-152104.jpg)
/image%2F0552669%2F20260821%2Fob_7311b2_img-20260821-152113.jpg)
/image%2F0552669%2F20260821%2Fob_f8d133_img-20260821-152158.jpg)
/image%2F0552669%2F20260821%2Fob_2a9a3b_img-20260821-152211.jpg)
/image%2F0552669%2F20260821%2Fob_47d8bd_img-20260821-152235.jpg)
/image%2F0552669%2F20260821%2Fob_527aea_img-20260821-152254.jpg)
/image%2F0552669%2F20260821%2Fob_fb7dcc_img-20260821-152257.jpg)
/image%2F0552669%2F20260821%2Fob_1e499a_img-20260821-152300.jpg)
/image%2F0552669%2F20260821%2Fob_0b6632_img-20260821-152454.jpg)
/image%2F0552669%2F20260821%2Fob_d2f758_img-20260821-152524.jpg)
/image%2F0552669%2F20260821%2Fob_dd41b5_img-20260821-152841.jpg)
/image%2F0552669%2F20260815%2Fob_634bc0_img-20260815-090258.jpg)
/image%2F0552669%2F20260815%2Fob_755174_img-20260815-090321.jpg)
/image%2F0552669%2F20260626%2Fob_498863_imgage-canicule-1.jpg)
/image%2F0552669%2F20260626%2Fob_deb301_imgage-canicule-2.jpg)
/image%2F0552669%2F20260609%2Fob_8238ad_img-20260609-100900.jpg)
/image%2F0552669%2F20260609%2Fob_7e6d64_img-20260609-100908.jpg)
/image%2F0552669%2F20260515%2Fob_43f2a2_capture-d-ecran-2026-05-15-120334.png)
/image%2F0552669%2F20260518%2Fob_14253d_capture-d-ecran-2026-05-18-124007.png)

